SCP
0 0 0 0 0 0 0 0 0 0 0 0 0 0 0 0 0 0 0 0 0 0 0 0 0 0 0 0 0 0 0 0 0 0 0 0 0 0 0 0 0 0 0 0 0 0 0 0 0 0 0 0 0 0
0 0 0 0 0 0 0 0 0 0 0 0 0 0 0 0 0 0 0 0 0 0 0 0 0 -0 0 0 0 0 0 0 0 0 0 0 0 0 0 0 0 0 0 0 0 0 0 0 0 0 0 0 0 0
0 0 0 0 0 0 0 0 0 0 0 0 0 0 0 0 0 0 0 0 0 0 0 0 0 0 0 0 0 0 0 0 0 0 0 0 0 0 0 0 0 0 0 0 0 0 0 0 0 0 0 0 0 0
0 0 0 0 0 0 0 0 0 0 0 0 0 0 0 0 0 0 0 0 0 0 0 0 0 0 0 0 0 0 0 0 0 0 0 0 0 0 0 0 0 0 0 0 0 0 0 0 0 0 0 0 0 0
0 0 0 0 0 0 0 0 0 0 0 0 0 0 0 0 0 0 0 0 0 0 0 0 0 0 0 0 0 0 0 0 0 0 0 0 0 0 0 0 0 0 0 0 0 0 0 0 0 0 0 0 0 0
0 0 0 0 0 0 0 0 0 0 0 0 0 0 0 0 0 0 0 0 0 0 0 0 0 0 0 0 0 0 0 0 0 0 0 0 0 0 0 0 0 0 0 0 0 0 0 0 0 0 0 0 0 0
0 0 0 0 0 0 0 0 0 0 0 0 0 0 0 0 0 0 0 0 0 0 0 0 0 0 0 0 0 0 0 0 0 0 0 0 0 0 0 0 0 0 0 0 0 0 0 0 0 0 0 0 0 0
0 0 0 0 0 0 0 0 0 0 0 0 0 0 0 0 0 0 0 0 0 0 0 0 0 0 0 0 0 0 0 0 0 0 0 0 0 0 0 0 0 0 0 0 0 0 0 0 0 0 -0 0 0 0
0 0 0 0 0 0 0 0 0 0 0 0 0 0 0 0 0 0 0 0 0 0 0 0 0 0 0 0 0 0 0 0 0 0 0 0 0 0 0 0 0 0 0 0 0 0 0 0 0 0 0 0 0 0
0 0 0 0 0 0 0 0 0 0 0 0 0 0 0 0 0 0 0 0 0 0 0 0 0 0 0 0 0 0 0 0 0 0 0 0 0 0 0 0 0 0 0 0 0 0 0 0 0 0 0 0 0 0
0 0 0 0 0 0 0 0 0 0 0 0 0 0 0 0 0 0 0 0 0 0 0 0 0 0 0 0 0 0 0 0 0 0 0 0 0 0 0 0 0 0 0 0 0 0 0 0 0 0 0 0 0 0
0 0 0 0 0 0 0 0 0 0 0 0 0 0 0 0 0 0 0 0 0 0 0 0 0 0 0 0 0 0 0 0 0 0 0 0 0 0 0 0 0 0 0 0 0 0 0 0 0 0 0 0 0 0
0 0 0 0 0 0 0 0 0 0 0 0 0 0 0 0 0 0 0 0 0 0 0 0 0 -0 -0 0 0 0 0 0 0 0 0 0 0 0 0 0 0 0 0 0 0 0 0 0 0 0 0 0 0 0
0 0 0 0 0 0 0 0 0 0 0 0 0 0 0 0 0 0 0 0 0 0 -0 -0 -0 0 0 0 0 0 0 0 0 0 0 0 -0 -0 0 0 0 0 0 0 0 0 0 0 0 0 0 0 0 0
0 0 0 0 0 0 0 0 0 0 0 0 0 0 0 0 0 0 0 0 0 0 0 0 -0 0 0 0 0 0 0 0 0 0 0 -0 -0 0 0 0 0 0 0 0 0 0 0 0 0 -0 -0 0 0 0
0 0 0 0 0 0 0 0 0 0 0 0 0 0 0 0 0 0 0 0 0 0 0 0 0 0 0 0 0 0 0 0 0 0 0 0 -0 -0 0 0 0 0 0 0 0 0 0 0 0 -0 0 0 0 0
0 0 0 0 0 0 0 0 0 0 0 0 0 0 -0 0 0 0 0 0 0 0 0 0 0 0 0 0 0 0 0 0 0 0 0 0 0 -0 0 0 0 0 0 -0 0 0 -0 0 0 0 0 0 0 0
0 0 0 0 0 0 0 0 0 0 0 0 0 0 0 0 0 0 0 0 0 0 0 0 0 0 0 0 0 0 0 0 0 0 -0 0 0 0 0 0 0 0 0 -0 0 0 0 -0 0 -0 0 -0 0 0
0 0 -0 -0 0 0 0 0 0 0 0 0 0 0 0 0 0 0 0 0 0 0 0 0 0 0 0 0 -0 0 0 0 -0 -0 0 0 0 0 0 0 0 0 0 0 -0 0 0 0 0 0 -0 0 0 0
0 0 0 0 0 0 0 0 0 0 0 0 0 0 0 0 0 0 0 0 0 0 0 0 0 0 0 0 0 0 -0 0 0 -0 -0 -0 -0 0 0 0 0 0 0 0 -0 0 0 0 0 0 0 -0 -0 0
0 0 0 0 0 0 0 0 0 0 0 0 0 0 0 0 0 0 -0 -0 0 0 0 0 0 0 0 0 0 0 -0 0 -0 -0 -0 -0 -0 0 0 0 0 0 0 0 0 -0 0 0 0 0 0 0 0 -0
0 0 0 0 0 0 0 0 0 0 0 0 0 -0 0 0 0 0 0 0 0 0 0 0 0 0 0 -0 -0 -0 -0 -0 -0 0 -0 -0 0 0 -0 0 0 0 0 0 0 0 -0 0 0 0 0 0 0 0
0 0 0 0 0 0 0 0 0 0 0 0 0 0 0 0 0 -0 0 -0 -0 -0 -0 -0 0 -0 -0 -0 -0 -0 -0 -0 0 0 0 -0 -0 -0 -0 -0 0 0 0 0 0 0 0 0 0 -0 -0 -0 -0 -0
0 0 0 0 0 0 0 0 0 0 0 0 0 0 0 0 0 0 0 0 0 -0 0 0 -0 0 0 0 -0 -0 0 0 0 -0 -0 -0 -0 -0 -0 -0 0 0 0 0 0 0 0 0 0 0 0 -0 -0 -0
0 0 0 0 0 0 0 0 0 0 0 0 0 0 -0 -0 0 0 0 0 0 -0 -0 -0 -0 0 -0 0 0 0 0 0 0 0 -0 -0 -0 -0 -0 -0 -0 -0 -0 -0 -0 -0 -0 -0 -0 -0 -0 -0 0 -0
0 0 -0 -0 0 0 0 0 0 0 0 0 0 0 0 0 0 0 0 0 0 0 -0 -0 -0 -0 -0 0 0 0 0 0 -0 -0 -0 0 -0 0 -0 -0 -0 -0 -0 -0 -0 -0 -0 -0 -0 -0 -0 -0 -0 -0
0 0 0 0 0 0 0 0 0 0 0 0 0 0 -0 0 0 0 0 0 0 0 0 0 -0 -0 -0 0 0 0 -0 -0 -0 -0 -0 -0 0 -0 -0 -0 -0 -0 -0 -0 -0 -0 -0 -0 -0 -0 -0 -0 -0 -0
0 0 0 0 0 0 0 0 0 0 0 0 0 0 0 0 0 0 0 0 0 0 0 -0 -0 0 0 0 0 0 -0 -0 -0 0 -0 0 -0 -0 -0 -0 -0 0 -0 -0 -0 -0 -0 -0 -0 -0 0 0 -0 -0
0 0 0 0 0 0 0 0 0 0 0 0 0 0 0 0 0 0 0 0 0 0 -0 -0 -0 0 0 0 0 -0 0 0 0 0 -0 -0 -0 -0 -0 0 0 0 0 0 -0 0 0 -0 -0 -0 -0 -0 -0 -0
0 0 0 0 0 0 0 0 0 0 0 0 0 0 0 0 0 0 0 0 -0 -0 -0 -0 0 0 -0 -0 0 0 -0 0 0 0 0 0 -0 -0 -0 0 0 0 0 0 0 -0 0 0 0 -0 -0 -0 -0 -0
0 0 0 0 0 0 0 0 0 0 0 0 0 0 0 0 0 0 0 0 0 0 0 0 0 -0 -0 0 0 0 0 0 0 -0 -0 0 -0 -0 -0 -0 -0 -0 0 -0 0 0 0 0 0 -0 -0 0 0 -0
0 0 0 0 0 0 0 0 0 0 0 -0 0 -0 0 0 0 0 0 -0 0 0 0 0 0 -0 -0 0 0 -0 0 0 0 0 -0 -0 0 0 0 0 0 -0 0 0 -0 -0 -0 0 0 0 0 -0 -0 0
0 0 0 0 0 0 0 0 0 0 0 -0 0 0 0 0 0 -0 0 -0 0 -0 0 -0 -0 -0 -0 -0 -0 -0 0 0 -0 -0 -0 -0 0 -0 0 0 -0 0 0 0 0 0 0 -0 0 -0 -0 -0 -0 0
Wind_Speed_500mb
38 35 32 31 30 30 31 32 34 32 31 31 31 33 29 28 27 20 8 13 18 11 47 23 13 15 11 4 4 14 13 13 9 10 4 5 4 6 7 8 10 6 3 5 6 5 2 18 9 10 6 14 1 16
39 36 34 32 31 31 32 32 33 32 31 31 30 30 29 27 25 26 22 14 21 27 43 60 59 52 50 36 23 5 5 10 4 7 5 3 4 6 3 6 12 7 6 5 6 8 9 8 3 14 9 9 8 11
41 40 37 35 33 32 33 33 34 34 33 33 31 24 26 26 25 26 26 23 22 16 39 16 7 12 24 28 20 16 9 4 9 8 4 5 2 5 3 7 3 11 14 3 9 14 14 17 10 7 8 14 22 26
41 40 39 38 37 34 33 35 36 34 29 28 27 24 26 25 22 22 19 6 14 11 10 15 16 10 10 23 31 36 32 22 10 13 5 4 2 6 7 8 4 11 4 5 6 9 9 25 31 32 31 28 34 42
42 43 42 40 40 38 35 37 36 30 23 23 21 24 26 23 19 19 8 2 4 9 8 30 53 24 13 32 27 30 31 22 13 9 1 5 8 2 7 2 5 3 7 6 8 10 9 23 32 36 41 42 40 41
43 43 44 44 41 39 38 35 31 24 19 18 22 25 22 20 17 14 6 7 5 11 11 8 19 29 16 12 20 44 21 18 20 16 9 7 4 4 4 6 14 17 12 14 12 19 25 24 22 29 41 54 59 61
44 43 43 42 41 36 30 29 28 21 17 14 20 21 19 19 16 11 6 3 5 12 8 15 18 14 15 14 19 19 18 19 19 7 9 10 20 13 4 13 14 43 43 29 21 17 29 30 40 62 66 74 72 70
44 43 42 42 35 30 28 27 24 20 17 16 17 20 19 20 20 8 3 3 13 10 7 5 11 17 4 10 10 17 24 21 12 12 7 9 6 7 8 22 25 25 22 27 30 27 44 63 75 73 69 62 61 64
42 40 40 37 32 27 26 26 23 19 17 12 14 19 18 5 1 4 9 14 14 11 6 7 4 8 24 13 2 4 2 1 7 6 9 8 3 8 16 26 23 14 9 28 47 60 69 62 68 68 61 56 53 58
42 40 37 35 31 25 26 23 20 17 10 7 9 4 3 1 4 16 5 3 5 8 10 11 11 7 18 13 12 7 5 3 3 9 4 4 8 37 16 5 2 21 35 46 50 53 63 58 68 68 59 60 58 56
39 40 35 31 28 27 29 23 21 15 10 9 5 5 5 5 8 5 5 9 10 7 13 16 23 9 9 4 4 3 2 4 2 9 5 5 6 3 5 9 28 36 40 49 51 59 64 66 64 66 73 65 60 60
39 41 36 31 32 33 32 26 24 21 12 11 6 6 5 5 6 5 6 6 8 8 12 10 13 21 7 6 2 6 1 5 8 6 1 5 6 8 11 29 39 43 49 55 67 69 69 66 65 68 72 69 66 61
37 40 39 36 36 36 33 32 28 25 18 11 7 4 6 6 3 8 9 7 5 8 4 3 5 4 5 2 5 4 0 8 11 2 6 5 9 10 23 41 48 52 54 70 73 70 65 59 55 55 57 53 55 50
34 40 41 40 39 38 32 33 33 32 18 10 11 4 7 8 9 10 9 6 11 7 3 6 3 10 2 4 5 3 8 2 5 5 6 4 18 28 34 44 47 53 61 68 68 62 58 62 54 42 38 33 29 33
39 42 39 40 41 37 37 39 39 44 13 10 11 9 13 27 20 22 32 38 26 6 2 2 5 18 6 4 4 3 5 8 8 4 5 18 29 27 36 40 41 43 57 62 59 59 52 43 43 37 27 16 15 21
37 33 41 41 42 42 44 46 44 38 8 9 13 9 22 14 31 36 26 16 13 9 6 7 4 3 8 6 8 10 6 3 4 6 24 23 25 29 36 35 36 41 57 57 58 56 45 41 35 34 16 9 3 12
34 38 42 43 46 46 49 46 31 15 11 9 15 28 39 39 24 33 27 18 8 7 4 3 5 12 5 5 5 2 5 6 25 42 29 26 25 33 35 37 42 42 54 63 60 58 45 28 28 23 6 2 3 8
40 43 43 52 56 54 50 19 14 13 13 21 15 26 25 31 37 33 26 22 18 12 11 7 4 3 6 4 1 5 21 25 26 31 32 22 28 35 31 37 39 40 47 61 56 43 35 32 29 27 14 15 13 13
48 40 43 59 63 34 15 20 11 8 22 20 29 40 41 44 41 37 33 32 29 24 9 7 6 6 6 3 14 23 46 39 30 28 28 24 35 34 31 35 36 41 44 53 53 42 28 30 27 24 18 15 3 11
36 36 57 65 54 10 9 10 15 10 9 9 24 35 42 39 41 38 34 29 26 18 15 9 10 19 20 11 31 41 29 23 25 34 35 36 31 26 28 28 30 31 40 45 42 36 37 31 26 18 14 16 5 4
44 59 66 61 15 8 10 9 12 11 12 12 22 28 16 24 32 36 38 35 33 16 14 26 38 44 44 44 31 24 31 29 34 38 38 30 20 19 17 17 18 23 37 46 50 54 58 43 33 36 32 37 27 27
56 59 51 31 4 5 6 12 9 8 9 16 30 25 15 11 17 31 32 22 18 38 38 38 47 45 38 41 44 37 30 33 33 20 8 7 12 16 20 19 13 20 27 40 49 59 59 50 55 54 46 47 41 44
57 49 22 8 5 9 8 10 7 7 5 7 7 7 7 8 9 5 7 11 19 42 46 44 44 42 42 38 28 32 33 23 6 10 10 10 12 13 15 13 13 16 21 26 29 42 50 55 54 53 56 64 70 69
47 14 10 9 13 7 7 9 9 8 8 7 6 5 4 6 4 5 5 7 10 9 19 26 29 34 26 21 29 25 10 7 12 16 16 22 27 25 22 21 20 22 24 29 28 34 40 44 50 54 57 60 66 68
7 10 8 8 11 7 7 6 9 6 8 8 5 3 4 4 3 6 3 5 12 9 9 9 12 13 16 19 10 21 28 22 27 15 23 36 42 42 41 38 37 36 31 34 40 43 46 46 45 47 52 57 62 64
4 11 13 20 8 8 8 5 7 7 5 3 4 10 6 2 3 7 5 9 14 10 6 5 13 40 47 44 44 29 23 40 33 38 34 22 28 43 38 39 42 42 43 44 47 51 54 53 56 57 55 57 58 59
4 8 13 14 8 7 7 7 6 5 3 4 4 6 5 4 4 7 13 6 4 8 7 21 51 40 38 20 25 24 41 38 41 40 32 30 34 31 33 35 36 36 32 35 41 41 47 53 57 57 57 52 50 53
11 7 7 13 10 11 4 3 3 0 3 4 2 4 4 2 7 7 3 11 11 16 17 36 39 29 20 21 24 39 32 38 41 38 38 33 32 35 35 29 30 31 33 35 39 42 44 43 42 43 44 47 50 49
8 4 1 8 8 5 1 1 3 6 4 5 4 4 5 8 8 12 10 17 19 18 21 23 19 13 25 27 39 29 28 32 31 25 25 27 27 25 22 18 24 27 31 32 30 29 30 34 33 33 35 36 34 35
7 8 3 4 4 5 6 10 4 9 7 11 8 14 21 21 8 12 15 19 23 26 23 19 12 9 17 30 33 26 26 15 16 19 16 23 25 25 27 26 29 31 32 29 29 31 34 33 32 31 31 30 29 31
2 16 6 6 5 9 13 12 4 8 20 13 17 19 21 21 11 10 12 30 16 23 26 27 26 37 26 29 35 33 26 20 21 20 7 11 21 21 18 13 17 20 16 15 22 19 23 25 25 24 24 20 19 22
5 6 5 3 4 10 11 8 2 5 8 7 4 6 11 1 13 15 15 19 34 33 26 33 39 42 33 32 29 20 23 23 27 17 15 22 20 14 13 10 13 21 25 17 25 18 17 21 20 19 18 17 20 21
3 2 7 6 3 9 8 5 3 6 3 5 2 6 6 3 2 28 31 8 25 36 35 36 32 29 31 29 26 25 28 23 20 10 9 10 11 15 13 12 12 23 19 28 27 7 20 20 14 18 25 26 22 20
Wind_Direction_500mb
273 275 281 286 293 301 307 313 318 324 328 339 343 348 346 346 349 0 323 322 322 270 292 288 245 231 305 258 119 323 354 351 5 35 76 293 5 308 18 295 330 68 32 341 8 19 289 349 358 51 202 213 150 342
266 266 274 280 286 293 300 306 312 316 321 324 331 335 337 337 339 342 346 315 285 273 271 289 275 255 257 249 264 263 266 290 336 51 12 343 338 344 338 292 339 36 146 232 167 228 270 353 12 139 111 100 231 301
264 265 266 271 278 284 291 298 304 310 313 315 322 325 327 329 329 335 345 333 337 317 309 318 10 14 240 236 221 218 245 236 336 20 233 237 266 119 302 275 356 324 10 6 27 341 359 69 27 338 303 297 292 304
257 261 266 269 272 277 283 289 295 302 303 309 325 321 320 320 320 327 340 336 352 331 293 276 269 299 197 216 231 230 249 260 306 320 271 203 175 215 230 224 173 233 17 334 303 328 333 358 351 351 332 300 306 308
259 262 264 266 268 271 275 279 290 295 294 308 316 314 314 312 317 321 317 213 356 347 291 290 304 261 210 226 211 218 221 244 262 274 207 252 247 328 290 360 254 214 170 138 228 256 256 288 312 316 314 310 310 315
259 262 266 268 266 263 269 280 287 287 282 300 310 314 310 314 319 326 208 229 234 281 311 306 306 291 231 201 230 235 210 230 237 237 224 236 217 3 258 245 237 265 287 279 242 254 266 276 286 293 300 297 294 293
262 263 263 265 266 261 259 271 279 268 274 284 302 313 306 307 306 289 248 229 240 269 283 303 300 291 321 210 212 208 214 242 234 227 218 231 260 249 203 254 249 278 279 253 254 255 284 299 300 307 304 300 288 285
259 260 260 261 257 252 258 263 266 253 263 276 292 300 299 297 300 292 286 287 250 292 242 274 280 305 294 217 211 232 231 224 231 233 221 212 252 199 256 254 278 280 263 260 272 273 291 298 302 303 303 293 282 277
256 255 255 257 243 241 247 256 248 242 255 265 293 296 295 282 178 348 313 282 262 232 267 242 254 274 356 4 182 133 170 36 260 205 232 166 211 223 231 251 266 270 277 296 300 298 297 294 295 294 290 288 286 281
252 250 249 242 226 226 242 246 225 229 251 237 271 270 254 360 283 316 283 224 231 202 229 244 254 275 333 335 12 15 15 234 311 253 200 161 246 252 248 165 14 317 311 313 307 297 295 291 292 293 283 286 281 282
250 244 233 225 216 221 232 230 214 213 216 219 196 231 227 262 277 248 248 202 189 236 220 237 232 223 257 239 251 17 239 275 291 270 138 267 274 247 141 324 322 317 314 314 310 304 301 297 289 286 291 286 276 277
244 237 216 214 213 219 223 220 201 198 199 191 178 229 244 242 237 243 239 233 191 235 203 218 243 211 236 265 96 353 237 27 254 281 265 269 253 204 298 325 328 323 321 320 320 313 306 294 290 285 286 282 273 271
236 224 207 205 214 215 215 207 196 192 185 164 200 219 217 226 209 212 218 238 235 225 214 62 330 208 177 66 66 61 359 240 295 300 242 251 189 269 318 331 326 326 324 325 322 315 311 305 299 295 291 287 278 266
231 206 197 205 210 207 205 191 184 183 163 180 174 264 208 219 230 202 213 232 273 199 155 62 63 357 132 85 211 224 235 343 287 269 246 247 342 333 324 327 327 327 331 332 327 327 326 326 321 309 312 296 269 247
202 189 199 208 201 200 189 183 184 177 176 194 195 223 220 232 256 271 260 266 275 334 277 321 206 195 213 173 212 302 261 230 225 276 246 334 330 319 325 331 330 331 337 344 343 339 339 330 335 326 337 311 273 244
183 199 206 202 194 186 183 181 184 177 207 222 229 252 260 270 263 266 277 275 287 253 300 226 235 228 225 195 192 216 231 271 268 280 308 314 315 329 330 333 329 338 350 342 348 341 332 333 338 351 10 4 30 202
189 201 200 186 181 182 179 173 167 195 210 228 239 235 252 277 282 292 297 307 281 269 208 234 245 223 254 229 220 345 325 255 306 316 317 304 321 333 332 331 327 327 339 347 342 347 338 340 341 347 359 150 174 172
193 197 188 180 174 170 167 157 171 195 237 242 249 251 251 266 272 277 280 291 286 244 184 202 284 263 262 276 211 184 295 334 325 315 316 306 330 332 326 338 341 341 341 349 351 347 343 352 351 360 358 320 254 233
197 194 184 178 172 146 154 183 188 236 241 248 254 260 267 275 278 280 279 272 271 267 235 197 216 209 226 195 297 280 263 266 281 305 324 311 328 329 328 340 346 346 352 0 15 18 6 2 354 342 345 350 316 216
195 185 173 172 159 127 138 172 190 243 261 246 275 268 262 267 273 271 267 265 260 263 212 198 208 235 225 256 286 262 293 304 303 313 317 320 326 334 332 338 349 348 2 8 16 12 7 9 10 17 24 3 343 157
168 171 171 163 148 133 170 184 204 235 270 262 274 287 273 265 263 261 254 245 252 231 231 234 243 255 256 278 295 309 308 301 316 317 310 313 336 355 355 356 355 14 22 34 43 41 40 35 40 76 54 58 84 106
163 171 169 162 118 183 252 210 237 311 260 270 290 279 252 257 260 260 255 233 231 240 239 246 250 254 264 278 291 301 302 307 315 313 312 18 29 26 25 18 19 34 51 54 56 54 47 45 64 76 81 86 94 94
157 158 141 155 190 207 261 206 230 226 247 249 244 233 224 229 234 234 233 230 242 247 244 244 250 255 267 272 291 287 287 290 268 161 106 71 53 48 39 50 33 40 57 57 54 53 60 56 52 59 77 82 87 97
147 152 175 196 199 236 227 211 219 245 244 253 241 246 234 235 236 228 243 243 289 265 221 231 245 242 243 268 276 284 238 169 150 146 115 91 75 63 63 65 66 78 63 64 64 67 66 68 68 67 66 71 76 79
150 187 191 216 199 225 221 217 209 221 243 225 245 254 267 249 226 223 243 321 314 295 264 303 262 204 224 223 172 113 105 87 121 161 125 93 79 80 77 80 82 76 77 81 76 77 73 74 76 81 85 89 90 89
150 202 187 193 214 209 215 236 204 215 253 288 325 326 304 311 329 307 279 307 290 260 270 249 148 121 113 111 121 110 106 100 119 144 108 108 102 90 91 89 90 88 82 83 84 83 79 81 87 90 94 92 91 91
243 230 210 224 251 279 263 250 273 278 325 358 329 341 35 4 282 268 281 267 132 86 82 144 139 129 124 109 84 97 111 94 94 111 122 117 99 99 95 101 97 93 95 93 85 86 92 98 93 91 91 95 94 95
245 256 200 196 216 232 231 271 69 207 265 242 321 309 280 200 224 237 183 163 116 92 113 153 170 141 85 95 119 127 115 104 99 100 99 110 103 98 97 104 102 103 103 99 100 98 96 96 89 88 93 98 99 99
256 238 263 182 194 215 264 262 236 224 241 222 209 242 275 297 227 210 170 138 151 152 158 167 178 136 132 136 142 136 146 149 131 124 126 123 115 108 113 112 111 118 119 120 111 97 107 100 96 94 97 100 107 104
237 193 177 213 175 209 206 224 223 261 232 201 288 307 320 319 286 191 188 183 185 171 168 164 156 203 175 164 163 156 128 123 144 142 135 161 147 123 121 122 126 127 136 124 114 112 108 115 113 111 104 99 100 106
183 189 221 225 233 242 221 179 164 288 296 279 294 302 307 315 284 193 261 224 212 178 187 178 170 174 182 166 160 152 142 150 148 140 106 121 160 159 157 142 171 159 141 144 141 136 143 136 130 121 116 106 102 109
173 218 209 243 234 160 159 187 251 207 235 256 317 65 106 113 322 31 64 192 207 191 157 178 190 190 170 164 167 167 169 160 169 164 154 147 166 167 163 222 202 190 198 155 148 146 151 147 127 118 110 118 118 109
253 263 247 282 208 192 202 88 10 308 252 124 153 267 280 299 341 128 130 99 144 161 154 160 158 154 167 170 169 164 167 165 164 155 143 164 157 125 132 147 155 174 188 175 169 151 164 147 117 111 119 116 115 136
Wind_Speed_850mb
38 35 32 31 30 30 31 32 34 32 31 31 31 33 29 28 27 20 8 13 18 11 47 23 13 15 11 4 4 14 13 13 9 10 4 5 4 6 7 8 10 6 3 5 6 5 2 18 9 10 6 14 1 16
39 36 34 32 31 31 32 32 33 32 31 31 30 30 29 27 25 26 22 14 21 27 43 60 59 52 50 36 23 5 5 10 4 7 5 3 4 6 3 6 12 7 6 5 6 8 9 8 3 14 9 9 8 11
41 40 37 35 33 32 33 33 34 34 33 33 31 24 26 26 25 26 26 23 22 16 39 16 7 12 24 28 20 16 9 4 9 8 4 5 2 5 3 7 3 11 14 3 9 14 14 17 10 7 8 14 22 26
41 40 39 38 37 34 33 35 36 34 29 28 27 24 26 25 22 22 19 6 14 11 10 15 16 10 10 23 31 36 32 22 10 13 5 4 2 6 7 8 4 11 4 5 6 9 9 25 31 32 31 28 34 42
42 43 42 40 40 38 35 37 36 30 23 23 21 24 26 23 19 19 8 2 4 9 8 30 53 24 13 32 27 30 31 22 13 9 1 5 8 2 7 2 5 3 7 6 8 10 9 23 32 36 41 42 40 41
43 43 44 44 41 39 38 35 31 24 19 18 22 25 22 20 17 14 6 7 5 11 11 8 19 29 16 12 20 44 21 18 20 16 9 7 4 4 4 6 14 17 12 14 12 19 25 24 22 29 41 54 59 61
44 43 43 42 41 36 30 29 28 21 17 14 20 21 19 19 16 11 6 3 5 12 8 15 18 14 15 14 19 19 18 19 19 7 9 10 20 13 4 13 14 43 43 29 21 17 29 30 40 62 66 74 72 70
44 43 42 42 35 30 28 27 24 20 17 16 17 20 19 20 20 8 3 3 13 10 7 5 11 17 4 10 10 17 24 21 12 12 7 9 6 7 8 22 25 25 22 27 30 27 44 63 75 73 69 62 61 64
42 40 40 37 32 27 26 26 23 19 17 12 14 19 18 5 1 4 9 14 14 11 6 7 4 8 24 13 2 4 2 1 7 6 9 8 3 8 16 26 23 14 9 28 47 60 69 62 68 68 61 56 53 58
42 40 37 35 31 25 26 23 20 17 10 7 9 4 3 1 4 16 5 3 5 8 10 11 11 7 18 13 12 7 5 3 3 9 4 4 8 37 16 5 2 21 35 46 50 53 63 58 68 68 59 60 58 56
39 40 35 31 28 27 29 23 21 15 10 9 5 5 5 5 8 5 5 9 10 7 13 16 23 9 9 4 4 3 2 4 2 9 5 5 6 3 5 9 28 36 40 49 51 59 64 66 64 66 73 65 60 60
39 41 36 31 32 33 32 26 24 21 12 11 6 6 5 5 6 5 6 6 8 8 12 10 13 21 7 6 2 6 1 5 8 6 1 5 6 8 11 29 39 43 49 55 67 69 69 66 65 68 72 69 66 61
37 40 39 36 36 36 33 32 28 25 18 11 7 4 6 6 3 8 9 7 5 8 4 3 5 4 5 2 5 4 0 8 11 2 6 5 9 10 23 41 48 52 54 70 73 70 65 59 55 55 57 53 55 50
34 40 41 40 39 38 32 33 33 32 18 10 11 4 7 8 9 10 9 6 11 7 3 6 3 10 2 4 5 3 8 2 5 5 6 4 18 28 34 44 47 53 61 68 68 62 58 62 54 42 38 33 29 33
39 42 39 40 41 37 37 39 39 44 13 10 11 9 13 27 20 22 32 38 26 6 2 2 5 18 6 4 4 3 5 8 8 4 5 18 29 27 36 40 41 43 57 62 59 59 52 43 43 37 27 16 15 21
37 33 41 41 42 42 44 46 44 38 8 9 13 9 22 14 31 36 26 16 13 9 6 7 4 3 8 6 8 10 6 3 4 6 24 23 25 29 36 35 36 41 57 57 58 56 45 41 35 34 16 9 3 12
34 38 42 43 46 46 49 46 31 15 11 9 15 28 39 39 24 33 27 18 8 7 4 3 5 12 5 5 5 2 5 6 25 42 29 26 25 33 35 37 42 42 54 63 60 58 45 28 28 23 6 2 3 8
40 43 43 52 56 54 50 19 14 13 13 21 15 26 25 31 37 33 26 22 18 12 11 7 4 3 6 4 1 5 21 25 26 31 32 22 28 35 31 37 39 40 47 61 56 43 35 32 29 27 14 15 13 13
48 40 43 59 63 34 15 20 11 8 22 20 29 40 41 44 41 37 33 32 29 24 9 7 6 6 6 3 14 23 46 39 30 28 28 24 35 34 31 35 36 41 44 53 53 42 28 30 27 24 18 15 3 11
36 36 57 65 54 10 9 10 15 10 9 9 24 35 42 39 41 38 34 29 26 18 15 9 10 19 20 11 31 41 29 23 25 34 35 36 31 26 28 28 30 31 40 45 42 36 37 31 26 18 14 16 5 4
44 59 66 61 15 8 10 9 12 11 12 12 22 28 16 24 32 36 38 35 33 16 14 26 38 44 44 44 31 24 31 29 34 38 38 30 20 19 17 17 18 23 37 46 50 54 58 43 33 36 32 37 27 27
56 59 51 31 4 5 6 12 9 8 9 16 30 25 15 11 17 31 32 22 18 38 38 38 47 45 38 41 44 37 30 33 33 20 8 7 12 16 20 19 13 20 27 40 49 59 59 50 55 54 46 47 41 44
57 49 22 8 5 9 8 10 7 7 5 7 7 7 7 8 9 5 7 11 19 42 46 44 44 42 42 38 28 32 33 23 6 10 10 10 12 13 15 13 13 16 21 26 29 42 50 55 54 53 56 64 70 69
47 14 10 9 13 7 7 9 9 8 8 7 6 5 4 6 4 5 5 7 10 9 19 26 29 34 26 21 29 25 10 7 12 16 16 22 27 25 22 21 20 22 24 29 28 34 40 44 50 54 57 60 66 68
7 10 8 8 11 7 7 6 9 6 8 8 5 3 4 4 3 6 3 5 12 9 9 9 12 13 16 19 10 21 28 22 27 15 23 36 42 42 41 38 37 36 31 34 40 43 46 46 45 47 52 57 62 64
4 11 13 20 8 8 8 5 7 7 5 3 4 10 6 2 3 7 5 9 14 10 6 5 13 40 47 44 44 29 23 40 33 38 34 22 28 43 38 39 42 42 43 44 47 51 54 53 56 57 55 57 58 59
4 8 13 14 8 7 7 7 6 5 3 4 4 6 5 4 4 7 13 6 4 8 7 21 51 40 38 20 25 24 41 38 41 40 32 30 34 31 33 35 36 36 32 35 41 41 47 53 57 57 57 52 50 53
11 7 7 13 10 11 4 3 3 0 3 4 2 4 4 2 7 7 3 11 11 16 17 36 39 29 20 21 24 39 32 38 41 38 38 33 32 35 35 29 30 31 33 35 39 42 44 43 42 43 44 47 50 49
8 4 1 8 8 5 1 1 3 6 4 5 4 4 5 8 8 12 10 17 19 18 21 23 19 13 25 27 39 29 28 32 31 25 25 27 27 25 22 18 24 27 31 32 30 29 30 34 33 33 35 36 34 35
7 8 3 4 4 5 6 10 4 9 7 11 8 14 21 21 8 12 15 19 23 26 23 19 12 9 17 30 33 26 26 15 16 19 16 23 25 25 27 26 29 31 32 29 29 31 34 33 32 31 31 30 29 31
2 16 6 6 5 9 13 12 4 8 20 13 17 19 21 21 11 10 12 30 16 23 26 27 26 37 26 29 35 33 26 20 21 20 7 11 21 21 18 13 17 20 16 15 22 19 23 25 25 24 24 20 19 22
5 6 5 3 4 10 11 8 2 5 8 7 4 6 11 1 13 15 15 19 34 33 26 33 39 42 33 32 29 20 23 23 27 17 15 22 20 14 13 10 13 21 25 17 25 18 17 21 20 19 18 17 20 21
3 2 7 6 3 9 8 5 3 6 3 5 2 6 6 3 2 28 31 8 25 36 35 36 32 29 31 29 26 25 28 23 20 10 9 10 11 15 13 12 12 23 19 28 27 7 20 20 14 18 25 26 22 20
Wind_Direction_850mb
273 275 281 286 293 301 307 313 318 324 328 339 343 348 346 346 349 0 323 322 322 270 292 288 245 231 305 258 119 323 354 351 5 35 76 293 5 308 18 295 330 68 32 341 8 19 289 349 358 51 202 213 150 342
266 266 274 280 286 293 300 306 312 316 321 324 331 335 337 337 339 342 346 315 285 273 271 289 275 255 257 249 264 263 266 290 336 51 12 343 338 344 338 292 339 36 146 232 167 228 270 353 12 139 111 100 231 301
264 265 266 271 278 284 291 298 304 310 313 315 322 325 327 329 329 335 345 333 337 317 309 318 10 14 240 236 221 218 245 236 336 20 233 237 266 119 302 275 356 324 10 6 27 341 359 69 27 338 303 297 292 304
257 261 266 269 272 277 283 289 295 302 303 309 325 321 320 320 320 327 340 336 352 331 293 276 269 299 197 216 231 230 249 260 306 320 271 203 175 215 230 224 173 233 17 334 303 328 333 358 351 351 332 300 306 308
259 262 264 266 268 271 275 279 290 295 294 308 316 314 314 312 317 321 317 213 356 347 291 290 304 261 210 226 211 218 221 244 262 274 207 252 247 328 290 360 254 214 170 138 228 256 256 288 312 316 314 310 310 315
259 262 266 268 266 263 269 280 287 287 282 300 310 314 310 314 319 326 208 229 234 281 311 306 306 291 231 201 230 235 210 230 237 237 224 236 217 3 258 245 237 265 287 279 242 254 266 276 286 293 300 297 294 293
262 263 263 265 266 261 259 271 279 268 274 284 302 313 306 307 306 289 248 229 240 269 283 303 300 291 321 210 212 208 214 242 234 227 218 231 260 249 203 254 249 278 279 253 254 255 284 299 300 307 304 300 288 285
259 260 260 261 257 252 258 263 266 253 263 276 292 300 299 297 300 292 286 287 250 292 242 274 280 305 294 217 211 232 231 224 231 233 221 212 252 199 256 254 278 280 263 260 272 273 291 298 302 303 303 293 282 277
256 255 255 257 243 241 247 256 248 242 255 265 293 296 295 282 178 348 313 282 262 232 267 242 254 274 356 4 182 133 170 36 260 205 232 166 211 223 231 251 266 270 277 296 300 298 297 294 295 294 290 288 286 281
252 250 249 242 226 226 242 246 225 229 251 237 271 270 254 360 283 316 283 224 231 202 229 244 254 275 333 335 12 15 15 234 311 253 200 161 246 252 248 165 14 317 311 313 307 297 295 291 292 293 283 286 281 282
250 244 233 225 216 221 232 230 214 213 216 219 196 231 227 262 277 248 248 202 189 236 220 237 232 223 257 239 251 17 239 275 291 270 138 267 274 247 141 324 322 317 314 314 310 304 301 297 289 286 291 286 276 277
244 237 216 214 213 219 223 220 201 198 199 191 178 229 244 242 237 243 239 233 191 235 203 218 243 211 236 265 96 353 237 27 254 281 265 269 253 204 298 325 328 323 321 320 320 313 306 294 290 285 286 282 273 271
236 224 207 205 214 215 215 207 196 192 185 164 200 219 217 226 209 212 218 238 235 225 214 62 330 208 177 66 66 61 359 240 295 300 242 251 189 269 318 331 326 326 324 325 322 315 311 305 299 295 291 287 278 266
231 206 197 205 210 207 205 191 184 183 163 180 174 264 208 219 230 202 213 232 273 199 155 62 63 357 132 85 211 224 235 343 287 269 246 247 342 333 324 327 327 327 331 332 327 327 326 326 321 309 312 296 269 247
202 189 199 208 201 200 189 183 184 177 176 194 195 223 220 232 256 271 260 266 275 334 277 321 206 195 213 173 212 302 261 230 225 276 246 334 330 319 325 331 330 331 337 344 343 339 339 330 335 326 337 311 273 244
183 199 206 202 194 186 183 181 184 177 207 222 229 252 260 270 263 266 277 275 287 253 300 226 235 228 225 195 192 216 231 271 268 280 308 314 315 329 330 333 329 338 350 342 348 341 332 333 338 351 10 4 30 202
189 201 200 186 181 182 179 173 167 195 210 228 239 235 252 277 282 292 297 307 281 269 208 234 245 223 254 229 220 345 325 255 306 316 317 304 321 333 332 331 327 327 339 347 342 347 338 340 341 347 359 150 174 172
193 197 188 180 174 170 167 157 171 195 237 242 249 251 251 266 272 277 280 291 286 244 184 202 284 263 262 276 211 184 295 334 325 315 316 306 330 332 326 338 341 341 341 349 351 347 343 352 351 360 358 320 254 233
197 194 184 178 172 146 154 183 188 236 241 248 254 260 267 275 278 280 279 272 271 267 235 197 216 209 226 195 297 280 263 266 281 305 324 311 328 329 328 340 346 346 352 0 15 18 6 2 354 342 345 350 316 216
195 185 173 172 159 127 138 172 190 243 261 246 275 268 262 267 273 271 267 265 260 263 212 198 208 235 225 256 286 262 293 304 303 313 317 320 326 334 332 338 349 348 2 8 16 12 7 9 10 17 24 3 343 157
168 171 171 163 148 133 170 184 204 235 270 262 274 287 273 265 263 261 254 245 252 231 231 234 243 255 256 278 295 309 308 301 316 317 310 313 336 355 355 356 355 14 22 34 43 41 40 35 40 76 54 58 84 106
163 171 169 162 118 183 252 210 237 311 260 270 290 279 252 257 260 260 255 233 231 240 239 246 250 254 264 278 291 301 302 307 315 313 312 18 29 26 25 18 19 34 51 54 56 54 47 45 64 76 81 86 94 94
157 158 141 155 190 207 261 206 230 226 247 249 244 233 224 229 234 234 233 230 242 247 244 244 250 255 267 272 291 287 287 290 268 161 106 71 53 48 39 50 33 40 57 57 54 53 60 56 52 59 77 82 87 97
147 152 175 196 199 236 227 211 219 245 244 253 241 246 234 235 236 228 243 243 289 265 221 231 245 242 243 268 276 284 238 169 150 146 115 91 75 63 63 65 66 78 63 64 64 67 66 68 68 67 66 71 76 79
150 187 191 216 199 225 221 217 209 221 243 225 245 254 267 249 226 223 243 321 314 295 264 303 262 204 224 223 172 113 105 87 121 161 125 93 79 80 77 80 82 76 77 81 76 77 73 74 76 81 85 89 90 89
150 202 187 193 214 209 215 236 204 215 253 288 325 326 304 311 329 307 279 307 290 260 270 249 148 121 113 111 121 110 106 100 119 144 108 108 102 90 91 89 90 88 82 83 84 83 79 81 87 90 94 92 91 91
243 230 210 224 251 279 263 250 273 278 325 358 329 341 35 4 282 268 281 267 132 86 82 144 139 129 124 109 84 97 111 94 94 111 122 117 99 99 95 101 97 93 95 93 85 86 92 98 93 91 91 95 94 95
245 256 200 196 216 232 231 271 69 207 265 242 321 309 280 200 224 237 183 163 116 92 113 153 170 141 85 95 119 127 115 104 99 100 99 110 103 98 97 104 102 103 103 99 100 98 96 96 89 88 93 98 99 99
256 238 263 182 194 215 264 262 236 224 241 222 209 242 275 297 227 210 170 138 151 152 158 167 178 136 132 136 142 136 146 149 131 124 126 123 115 108 113 112 111 118 119 120 111 97 107 100 96 94 97 100 107 104
237 193 177 213 175 209 206 224 223 261 232 201 288 307 320 319 286 191 188 183 185 171 168 164 156 203 175 164 163 156 128 123 144 142 135 161 147 123 121 122 126 127 136 124 114 112 108 115 113 111 104 99 100 106
183 189 221 225 233 242 221 179 164 288 296 279 294 302 307 315 284 193 261 224 212 178 187 178 170 174 182 166 160 152 142 150 148 140 106 121 160 159 157 142 171 159 141 144 141 136 143 136 130 121 116 106 102 109
173 218 209 243 234 160 159 187 251 207 235 256 317 65 106 113 322 31 64 192 207 191 157 178 190 190 170 164 167 167 169 160 169 164 154 147 166 167 163 222 202 190 198 155 148 146 151 147 127 118 110 118 118 109
253 263 247 282 208 192 202 88 10 308 252 124 153 267 280 299 341 128 130 99 144 161 154 160 158 154 167 170 169 164 167 165 164 155 143 164 157 125 132 147 155 174 188 175 169 151 164 147 117 111 119 116 115 136